Savanna, IL

2:34 PM CST on February 24, 2017 (GMT -0600)
Tri-Township

Weather History for KSFY - October, 2012

Change the Weather History Date:

Sunday, October 14, 2012

  Actual Average (KCWI) Record (KCWI)
Temperature  
Mean Temperature 56 °F -  
Max Temperature 66 °F 66 °F 83 °F (1962)
Min Temperature 46 °F 44 °F 26 °F (2006)
Degree Days  
Heating Degree Days 8    
Growing Degree Days 6 (Base 50)    
Moisture  
Dew Point 55 °F    
Average Humidity 89    
Maximum Humidity 97    
Minimum Humidity 78    
Precipitation  
Precipitation 0.47 in - - ()
Sea Level Pressure  
Sea Level Pressure 29.63 in    
Wind  
Wind Speed 8 mph (SW)    
Max Wind Speed 21 mph    
Max Gust Speed 31 mph    
Visibility 8 miles    
Events Rain    
Averages and records for this station are not official NWS values.
T = Trace of Precipitation, MM = Missing Value Source: NWS Daily Summary

Daily Weather History Graph

Daily Weather History Graph

Search for Another Location

Airport or City:

Trip Planner

Search our weather history database for the weather conditions in past years. The results will help you decide how hot, cold, wet, or windy it might be!

Date:

Astronomy

Oct. 14, 2012 Rise Set
Actual Time 7:12 AM CDT 6:19 PM CDT
Civil Twilight 6:44 AM CDT 6:47 PM CDT
Nautical Twilight 6:11 AM CDT 7:20 PM CDT
Astronomical Twilight 5:39 AM CDT 7:52 PM CDT
Moon 6:11 AM CDT (10/14) 5:39 PM CDT (10/14)
Length of Visible Light 12h 03m
Length of Day
11h 07m
Waning Crescent, 1% of the Moon is Illuminated
Oct 14
Waning Crescent
Oct 15
New
Oct 21
First Quarter
Oct 29
Full
Nov 6
Last Quarter

Hourly Weather History & Observations

Time (CDT) Temp. Dew Point Humidity Pressure Visibility Wind Dir Wind Speed Gust Speed Precip Events Conditions
12:15 AM 64.9 °F 61.7 °F 89% 29.71 in 10.0 mi SSW 6.9 mph - N/A   Clear
12:35 AM 63.7 °F 60.4 °F 89% 29.71 in 10.0 mi SW 6.9 mph - N/A   Clear
12:55 AM 63.7 °F 61.0 °F 91% 29.71 in 10.0 mi South 8.1 mph - N/A   Clear
1:15 AM 64.2 °F 61.2 °F 90% 29.70 in 10.0 mi South 10.4 mph - N/A   Scattered Clouds
1:35 AM 63.9 °F 61.2 °F 91% 29.70 in 10.0 mi SSE 10.4 mph - N/A   Drizzle
1:55 AM 64.0 °F 61.3 °F 91% 29.69 in 10.0 mi South 5.8 mph - N/A   Light Drizzle
2:15 AM 63.7 °F 61.2 °F 91% 29.68 in 10.0 mi South 4.6 mph - N/A   Drizzle
2:35 AM 63.5 °F 61.2 °F 92% 29.67 in 7.0 mi South 4.6 mph - 0.01 in Rain Light Rain
2:55 AM 63.5 °F 61.7 °F 94% 29.66 in 7.0 mi SE 8.1 mph - 0.01 in   Drizzle
3:15 AM 63.5 °F 61.7 °F 94% 29.65 in 10.0 mi South 8.1 mph - N/A Rain Rain
3:35 AM 63.3 °F 61.7 °F 94% 29.64 in 7.0 mi SE 4.6 mph - 0.02 in Rain Light Rain
3:55 AM 62.8 °F 61.5 °F 96% 29.62 in 5.0 mi ESE 4.6 mph - 0.04 in Rain Light Rain
4:15 AM 63.1 °F 61.9 °F 96% 29.60 in 5.0 mi Calm Calm - 0.01 in   Light Drizzle
4:35 AM 63.0 °F 61.7 °F 96% 29.59 in 7.0 mi East 3.5 mph - 0.01 in   Overcast
4:55 AM 62.8 °F 61.5 °F 96% 29.58 in 5.0 mi Calm Calm - 0.01 in   Overcast
5:15 AM 62.6 °F 61.2 °F 95% 29.58 in 4.0 mi Calm Calm - 0.01 in Rain Rain
5:35 AM 62.2 °F 61.2 °F 96% 29.57 in 1.5 mi Calm Calm - 0.03 in   Heavy Drizzle
5:55 AM 62.2 °F 61.2 °F 96% 29.56 in 0.8 mi Calm Calm - 0.04 in   Drizzle
6:15 AM 62.1 °F 61.0 °F 96% 29.55 in 1.0 mi Calm Calm - 0.01 in   Drizzle
6:35 AM 61.7 °F 60.8 °F 97% 29.55 in 0.5 mi Calm Calm - 0.01 in Rain Rain
6:55 AM 61.9 °F 61.0 °F 97% 29.55 in 0.8 mi Calm Calm - 0.02 in Rain Rain
7:15 AM 61.7 °F 60.8 °F 97% 29.55 in 1.2 mi SW 4.6 mph - 0.01 in Rain Light Rain
7:35 AM 61.3 °F 60.4 °F 97% 29.54 in 1.2 mi SSW 6.9 mph - 0.02 in   Drizzle
7:55 AM 61.7 °F 60.8 °F 97% 29.54 in 2.5 mi SSW 6.9 mph - 0.02 in   Overcast
8:15 AM 61.9 °F 61.0 °F 97% 29.54 in 7.0 mi South 6.9 mph - 0.01 in Rain Light Rain
8:35 AM 61.9 °F 61.0 °F 97% 29.54 in 4.0 mi South 9.2 mph - 0.01 in Rain Rain
8:55 AM 61.9 °F 61.0 °F 97% 29.52 in 10.0 mi South 8.1 mph - 0.02 in   Overcast
9:15 AM 61.9 °F 60.8 °F 96% 29.51 in 3.0 mi South 10.4 mph - 0.07 in Rain Heavy Rain
9:35 AM 62.2 °F 61.0 °F 96% 29.50 in 10.0 mi SSE 10.4 mph - 0.09 in Rain Light Rain
9:55 AM 62.6 °F 61.0 °F 94% 29.50 in 10.0 mi South 13.8 mph - 0.10 in Rain Light Rain
10:15 AM 62.6 °F 60.8 °F 94% 29.50 in 4.0 mi South 12.7 mph - 0.07 in Rain Heavy Rain
10:35 AM 61.7 °F 60.3 °F 95% 29.50 in 5.0 mi SSW 11.5 mph - 0.12 in Rain Rain
10:55 AM 61.7 °F 60.1 °F 94% 29.47 in 10.0 mi SSE 6.9 mph - 0.14 in Rain Rain
11:15 AM 63.0 °F 61.2 °F 94% 29.48 in 10.0 mi South 13.8 mph - N/A   Light Drizzle
11:35 AM 63.7 °F 60.6 °F 90% 29.48 in 10.0 mi SSW 11.5 mph - N/A   Overcast
11:55 AM 63.9 °F 60.6 °F 89% 29.48 in 10.0 mi South 10.4 mph - N/A   Mostly Cloudy
12:15 PM 63.9 °F 59.9 °F 87% 29.46 in 10.0 mi South 6.9 mph - N/A   Mostly Cloudy
12:35 PM 64.4 °F 59.7 °F 85% 29.45 in 10.0 mi South 3.5 mph - N/A   Overcast
12:55 PM 65.7 °F 59.4 °F 80% 29.45 in 10.0 mi South 9.2 mph - N/A   Scattered Clouds
1:15 PM 66.0 °F 59.0 °F 78% 29.45 in 10.0 mi SSW 10.4 mph - N/A   Scattered Clouds
1:35 PM 65.7 °F 58.8 °F 79% 29.43 in 10.0 mi SSW 6.9 mph - N/A   Scattered Clouds
1:55 PM 57.9 °F 53.6 °F 86% 29.47 in 7.0 mi NNW 19.6 mph 25.3 mph 0.01 in Rain Rain
2:15 PM 54.7 °F 52.0 °F 91% 29.49 in 4.0 mi NNW 18.4 mph 29.9 mph 0.05 in Rain Rain
2:35 PM 54.1 °F 51.8 °F 92% 29.51 in 10.0 mi NW 13.8 mph 20.7 mph 0.06 in Rain Light Rain
3:15 PM 53.1 °F 49.8 °F 89% 29.55 in 10.0 mi NW 20.7 mph 27.6 mph N/A   Light Drizzle
3:35 PM 52.9 °F 50.0 °F 90% 29.58 in 10.0 mi NW 16.1 mph 24.2 mph N/A Rain Light Rain
3:55 PM 52.3 °F 49.5 °F 90% 29.61 in 10.0 mi NW 16.1 mph 25.3 mph N/A Rain Rain
4:15 PM 52.9 °F 49.8 °F 89% 29.63 in 10.0 mi WNW 17.3 mph 20.7 mph N/A   Overcast
4:35 PM 52.7 °F 48.4 °F 85% 29.65 in 10.0 mi NW 19.6 mph 31.1 mph N/A   Overcast
4:55 PM 52.2 °F 47.8 °F 85% 29.68 in 10.0 mi NW 19.6 mph 24.2 mph N/A   Overcast
5:15 PM 52.2 °F 46.9 °F 82% 29.69 in 10.0 mi NW 16.1 mph 24.2 mph N/A   Overcast
5:35 PM 51.4 °F 47.1 °F 85% 29.71 in 10.0 mi NW 18.4 mph 26.5 mph N/A   Overcast
5:55 PM 51.8 °F 47.3 °F 85% 29.73 in 10.0 mi WNW 10.4 mph 19.6 mph N/A   Overcast
6:15 PM 52.0 °F 47.3 °F 84% 29.74 in 10.0 mi WNW 10.4 mph 17.3 mph N/A   Overcast
6:35 PM 51.8 °F 47.5 °F 85% 29.75 in 10.0 mi West 18.4 mph 25.3 mph N/A   Overcast
6:55 PM 51.3 °F 46.8 °F 85% 29.76 in 10.0 mi WNW 16.1 mph 24.2 mph N/A   Overcast
7:15 PM 50.9 °F 46.6 °F 85% 29.77 in 10.0 mi WNW 12.7 mph 24.2 mph N/A   Overcast
7:35 PM 50.9 °F 46.4 °F 85% 29.77 in 10.0 mi WNW 16.1 mph 20.7 mph N/A   Overcast
7:55 PM 50.0 °F 46.0 °F 86% 29.79 in 7.0 mi WNW 13.8 mph 23.0 mph N/A   Overcast
8:15 PM 49.6 °F 45.5 °F 86% 29.79 in 10.0 mi WNW 11.5 mph 18.4 mph N/A   Overcast
8:35 PM 50.0 °F 43.7 °F 79% 29.81 in 10.0 mi WNW 15.0 mph 24.2 mph N/A   Overcast
8:55 PM 49.5 °F 43.3 °F 79% 29.81 in 10.0 mi NW 16.1 mph 19.6 mph N/A   Overcast
9:15 PM 49.5 °F 43.2 °F 79% 29.82 in 10.0 mi NW 9.2 mph - N/A   Overcast
9:35 PM 48.7 °F 42.3 °F 78% 29.83 in 10.0 mi NW 10.4 mph - N/A   Mostly Cloudy
9:55 PM 47.8 °F 41.9 °F 80% 29.83 in 10.0 mi WNW 9.2 mph - N/A   Scattered Clouds
10:15 PM 48.0 °F 41.9 °F 79% 29.83 in 10.0 mi WNW 8.1 mph - N/A   Clear
10:35 PM 47.7 °F 41.5 °F 79% 29.83 in 10.0 mi West 8.1 mph - N/A   Clear
10:55 PM 47.5 °F 41.9 °F 81% 29.84 in 10.0 mi West 5.8 mph - N/A   Clear
11:15 PM 47.3 °F 41.9 °F 82% 29.85 in 10.0 mi West 8.1 mph - N/A   Clear
11:35 PM 46.6 °F 41.9 °F 84% 29.85 in 10.0 mi West 6.9 mph - N/A   Clear